Regional Weather Roundup
Issued by NWS Bismarck, ND

Home | Current Version | Previous Version | Text Only | Print | Product List | Glossary On
Versions: 1 2 3 4 5 6 7 8 9 10 11 12 13 14 15 16 17 18 19 20 21 22 23 24 25 26 27 28 29 30 31 32 33 34 35 36 37 38 39 40 41 42 43 44 45 46 47 48 49 50
000
ASUS43 KBIS 172002
RWRBIS

NWR BROADCAST TEXT
NATIONAL WEATHER SERVICE BISMARCK ND
200 PM CST TUE JAN 17 2017

NOTE: "FAIR" INDICATES FEW OR NO CLOUDS BELOW 12,000 FEET WITH NO
SIGNIFICANT WEATHER AND/OR OBSTRUCTIONS TO VISIBILITY.


CITY           SKY/WX    TMP DP  RH WIND       PRES   REMARKS
WILLISTON      FAIR      27  16  63 SW13      29.71F WCI  16
MINOT          FAIR      29  17  61 S20G30    29.67F WCI  16
MINOT AFB      NOT AVBL
BISMARCK       FAIR      22  14  71 E3        29.83F
DICKINSON      FAIR      29  19  66 W20       29.74F WCI  16
GARRISON         N/A     27  17  66 SW12      29.74F WCI  17
HETTINGER ARPT FAIR      31  18  58 S3        29.83F
JAMESTOWN      FAIR      30  23  75 S12       29.83F
HAZEN            N/A    N/A N/A N/A SW13      29.79S
MANDAN         FAIR      25  16  68 SW12      29.81F WCI  14
STANLEY        FAIR      28  21  74 SW15      29.69F WCI  17
WATFORD CITY   FAIR      28  19  69 SW21G26   29.73F WCI  15
$$

CITY           SKY/WX    TMP DP  RH WIND       PRES   REMARKS
GRAND FORKS    FAIR      21  14  74 S15       29.83F WCI   8
GRAND FORKS AF FAIR      29  20  70 S13       29.81F WCI  18
DEVILS LAKE    FAIR      27  18  69 SW17      29.75F WCI  14
FARGO          FAIR      22  16  78 S9        29.91F WCI  12
GRAFTON        FAIR      19  16  86 S16       29.81F WCI   5
GWINNER        FAIR      23  19  86 S15       29.90F WCI  10
$$

CITY           SKY/WX    TMP DP  RH WIND       PRES   REMARKS
ABERDEEN       FAIR      18  10  71 S12       29.96F WCI   5
MOBRIDGE       FAIR      18  10  71 SE12      29.87F WCI   5
BUFFALO          N/A     34  21  59 W16       29.76F
RAPID CITY     FAIR      31  20  63 CALM      29.88F
GLASGOW        FAIR      30  21  69 SE6       29.70F
SIDNEY         FAIR      26  18  71 S16       29.75F WCI  14
WOLF POINT     FAIR      26  14  60 CALM      29.73F
GLENDIVE       FAIR      29  19  66 VRB6      29.78R
MILES CITY     FAIR      25  14  63 S9        29.83F WCI  15
BAKER          FAIR      32  19  58 SW16      29.80F
$$

CITY           SKY/WX    TMP DP  RH WIND       PRES   REMARKS
BILLINGS       FAIR      34  16  47 SW26G35   29.86F
GREAT FALLS    FAIR      41  22  46 MISG      29.81F
$$





USA.gov is the U.S. government's official web portal to all federal, state and local government web resources and services.